When you browse on this site, cookies collect data to enhance your experience and personalize the content and advertising you see.
Visit our Privacy Policy to learn more. By continuing to use the site, you agree to this use of cookies and data.
  • In Switzerland
  • List of Countries
  • For 7 days
  • Water Temperature
  • Weather Map
  • Weather Widgets
  • user-avatar
    Login

    Hourly Weather Salzburg

    Today, 1 June, Monday

    Time Temperature Precipitation Wind Pressure Humidity
    00:00 +2°C° 0.1 mm 0 mps 627 mmHg 96%
    01:00 +2°C° 0.1 mm 0 mps 627 mmHg 96%
    02:00 +2°C° 0 mm 0 mps 627 mmHg 96%
    03:00 +1°C° 0 mm 0 mps 627 mmHg 96%
    04:00 +1°C° 0 mm 0 mps 626 mmHg 96%
    05:00 +3°C° 0 mm 0 mps 627 mmHg 93%
    06:00 +4°C° 0 mm 0 mps 627 mmHg 90%
    07:00 +6°C° 0 mm 0 mps 628 mmHg 87%
    08:00 +9°C° 0 mm 1 mps 629 mmHg 77%
    09:00 +11°C° 0 mm 1 mps 629 mmHg 67%
    10:00 +13°C° 0 mm 1 mps 630 mmHg 56%
    11:00 +14°C° 0 mm 2 mps 630 mmHg 54%
    12:00 +14°C° 0 mm 2 mps 630 mmHg 52%
    13:00 +15°C° 0 mm 2 mps 630 mmHg 50%
    14:00 +15°C° 0 mm 2 mps 630 mmHg 51%
    15:00 +15°C° 0 mm 2 mps 630 mmHg 53%
    16:00 +15°C° 0 mm 2 mps 630 mmHg 54%
    17:00 +13°C° 0 mm 2 mps 629 mmHg 63%
    18:00 +10°C° 0 mm 2 mps 628 mmHg 72%
    19:00 +10°C° 0 mm 1 mps 628 mmHg 81%
    20:00 +8°C° 0 mm 1 mps 628 mmHg 85%
    21:00 +6°C° 0 mm 1 mps 627 mmHg 90%
    22:00 +4°C° 0 mm 0 mps 627 mmHg 94%
    23:00 +3°C° 0 mm 0 mps 627 mmHg 94%

    Tomorrow, 2 June, Tuesday

    Time Temperature Precipitation Wind Pressure Humidity
    00:00 +3°C° 0 mm 0 mps 627 mmHg 94%
    01:00 +3°C° 0 mm 0 mps 626 mmHg 94%
    02:00 +2°C° 0 mm 0 mps 626 mmHg 95%
    03:00 +2°C° 0 mm 0 mps 626 mmHg 95%
    04:00 +2°C° 0 mm 0 mps 626 mmHg 95%
    05:00 +4°C° 0 mm 0 mps 626 mmHg 89%
    06:00 +6°C° 0 mm 0 mps 627 mmHg 83%
    07:00 +8°C° 0 mm 0 mps 628 mmHg 77%
    08:00 +10°C° 0 mm 1 mps 628 mmHg 69%
    09:00 +12°C° 0 mm 1 mps 628 mmHg 60%
    10:00 +14°C° 0 mm 2 mps 629 mmHg 51%
    11:00 +14°C° 0 mm 2 mps 629 mmHg 49%
    12:00 +15°C° 0 mm 2 mps 628 mmHg 46%
    13:00 +14°C° 0 mm 3 mps 628 mmHg 43%
    14:00 +14°C° 0.1 mm 3 mps 628 mmHg 45%
    15:00 +14°C° 0.1 mm 3 mps 627 mmHg 47%
    16:00 +13°C° 0.1 mm 3 mps 627 mmHg 48%
    17:00 +13°C° 0 mm 2 mps 626 mmHg 57%
    18:00 +10°C° 0 mm 2 mps 626 mmHg 66%
    19:00 +10°C° 0 mm 1 mps 625 mmHg 75%
    20:00 +8°C° 0 mm 1 mps 624 mmHg 80%
    21:00 +6°C° 0 mm 1 mps 624 mmHg 85%
    22:00 +5°C° 0 mm 1 mps 624 mmHg 90%
    23:00 +4°C° 0 mm 1 mps 623 mmHg 91%

    Day after tomorrow, 3 June, Wednesday

    Time Temperature Precipitation Wind Pressure Humidity
    00:00 +4°C° 0 mm 1 mps 623 mmHg 92%
    01:00 +4°C° 0 mm 1 mps 623 mmHg 92%
    02:00 +3°C° 0 mm 1 mps 622 mmHg 92%
    03:00 +3°C° 0 mm 1 mps 622 mmHg 92%
    04:00 +3°C° 0 mm 1 mps 622 mmHg 92%
    05:00 +5°C° 0 mm 1 mps 622 mmHg 85%
    06:00 +6°C° 0 mm 0 mps 623 mmHg 78%
    07:00 +8°C° 0 mm 0 mps 623 mmHg 71%
    08:00 +10°C° 0 mm 0 mps 624 mmHg 62%
    09:00 +14°C° 0 mm 1 mps 624 mmHg 52%
    10:00 +16°C° 0 mm 1 mps 625 mmHg 43%
    11:00 +16°C° 0 mm 1 mps 625 mmHg 40%
    12:00 +18°C° 0 mm 1 mps 625 mmHg 37%
    13:00 +19°C° 0 mm 1 mps 625 mmHg 34%
    14:00 +19°C° 0 mm 1 mps 624 mmHg 37%
    15:00 +18°C° 0 mm 1 mps 624 mmHg 40%
    16:00 +18°C° 0 mm 1 mps 623 mmHg 43%
    17:00 +15°C° 0.1 mm 1 mps 622 mmHg 55%
    18:00 +13°C° 0.1 mm 1 mps 622 mmHg 68%
    19:00 +11°C° 0.1 mm 1 mps 621 mmHg 80%
    20:00 +10°C° 0.1 mm 1 mps 620 mmHg 83%
    21:00 +8°C° 0.1 mm 2 mps 620 mmHg 86%
    22:00 +6°C° 0.1 mm 2 mps 620 mmHg 89%
    23:00 +6°C° 0 mm 2 mps 619 mmHg 89%

    4 June, Thursday

    Time Temperature Precipitation Wind Pressure Humidity
    00:00 +6°C° 0 mm 2 mps 619 mmHg 89%
    01:00 +5°C° 0 mm 2 mps 619 mmHg 90%
    02:00 +5°C° 0 mm 2 mps 618 mmHg 90%
    03:00 +5°C° 0 mm 2 mps 618 mmHg 90%
    04:00 +5°C° 0 mm 2 mps 618 mmHg 90%
    05:00 +6°C° 0 mm 2 mps 619 mmHg 85%
    06:00 +9°C° 0 mm 1 mps 619 mmHg 80%
    07:00 +11°C° 0 mm 1 mps 620 mmHg 76%
    08:00 +13°C° 0 mm 1 mps 620 mmHg 69%
    09:00 +14°C° 0 mm 1 mps 621 mmHg 62%
    10:00 +16°C° 0 mm 1 mps 622 mmHg 56%
    11:00 +16°C° 0.4 mm 1 mps 621 mmHg 62%
    12:00 +15°C° 0.4 mm 1 mps 621 mmHg 69%
    13:00 +15°C° 0.4 mm 1 mps 620 mmHg 75%
    14:00 +13°C° 0.7 mm 1 mps 620 mmHg 81%
    15:00 +12°C° 0.7 mm 1 mps 619 mmHg 87%
    16:00 +11°C° 0.7 mm 1 mps 619 mmHg 92%
    17:00 +10°C° 2.2 mm 1 mps 618 mmHg 94%
    18:00 +9°C° 2.2 mm 1 mps 618 mmHg 96%
    19:00 +8°C° 2.2 mm 1 mps 618 mmHg 98%
    20:00 +8°C° 0.6 mm 1 mps 618 mmHg 98%
    21:00 +8°C° 0.6 mm 1 mps 619 mmHg 98%
    22:00 +7°C° 0.6 mm 0 mps 619 mmHg 98%
    23:00 +6°C° 0.6 mm 0 mps 619 mmHg 98%

    5 June, Friday

    Time Temperature Precipitation Wind Pressure Humidity
    00:00 +6°C° 0.6 mm 0 mps 619 mmHg 98%
    01:00 +6°C° 0.6 mm 0 mps 619 mmHg 98%
    02:00 +6°C° 0.2 mm 0 mps 619 mmHg 98%
    03:00 +6°C° 0.2 mm 0 mps 619 mmHg 98%
    04:00 +6°C° 0.2 mm 0 mps 619 mmHg 98%
    05:00 +6°C° 0.5 mm 0 mps 619 mmHg 97%
    06:00 +7°C° 0.5 mm 0 mps 620 mmHg 97%
    07:00 +7°C° 0.5 mm 0 mps 620 mmHg 96%
    08:00 +9°C° 0.4 mm 1 mps 620 mmHg 95%
    09:00 +9°C° 0.4 mm 1 mps 620 mmHg 93%
    10:00 +10°C° 0.4 mm 1 mps 621 mmHg 92%
    11:00 +12°C° 0.1 mm 1 mps 621 mmHg 81%
    12:00 +14°C° 0.1 mm 1 mps 622 mmHg 70%
    13:00 +16°C° 0.1 mm 1 mps 623 mmHg 60%
    14:00 +16°C° 0.4 mm 1 mps 622 mmHg 62%
    15:00 +16°C° 0.4 mm 1 mps 622 mmHg 64%
    16:00 +16°C° 0.4 mm 1 mps 622 mmHg 67%
    17:00 +15°C° 0.5 mm 1 mps 621 mmHg 74%
    18:00 +13°C° 0.5 mm 1 mps 621 mmHg 82%
    19:00 +12°C° 0.5 mm 1 mps 620 mmHg 89%
    20:00 +11°C° 0.2 mm 1 mps 620 mmHg 91%
    21:00 +10°C° 0.2 mm 1 mps 619 mmHg 92%
    22:00 +8°C° 0.2 mm 2 mps 619 mmHg 93%
    23:00 +9°C° 0.6 mm 1 mps 619 mmHg 94%

    6 June, Saturday

    Time Temperature Precipitation Wind Pressure Humidity
    00:00 +9°C° 0.6 mm 1 mps 619 mmHg 95%
    01:00 +8°C° 0.6 mm 0 mps 619 mmHg 97%
    02:00 +9°C° 1.5 mm 1 mps 619 mmHg 97%
    03:00 +9°C° 1.5 mm 1 mps 619 mmHg 97%
    04:00 +8°C° 1.5 mm 1 mps 619 mmHg 98%
    05:00 +8°C° 1.2 mm 1 mps 619 mmHg 97%
    06:00 +8°C° 1.2 mm 0 mps 619 mmHg 97%
    07:00 +8°C° 1.2 mm 0 mps 619 mmHg 97%
    08:00 +9°C° 0.4 mm 1 mps 620 mmHg 96%
    09:00 +9°C° 0.4 mm 1 mps 620 mmHg 95%
    10:00 +9°C° 0.4 mm 1 mps 620 mmHg 94%
    11:00 +9°C° 0.3 mm 1 mps 620 mmHg 94%
    12:00 +9°C° 0.3 mm 1 mps 620 mmHg 94%
    13:00 +9°C° 0.3 mm 1 mps 620 mmHg 94%
    14:00 +9°C° 0.3 mm 1 mps 620 mmHg 94%
    15:00 +9°C° 0.3 mm 1 mps 621 mmHg 93%
    16:00 +8°C° 0.3 mm 0 mps 621 mmHg 93%
    17:00 +8°C° 0.2 mm 0 mps 621 mmHg 94%
    18:00 +8°C° 0.2 mm 0 mps 621 mmHg 94%
    19:00 +7°C° 0.2 mm 0 mps 622 mmHg 95%
    20:00 +7°C° 0 mm 0 mps 622 mmHg 96%
    21:00 +6°C° 0 mm 0 mps 622 mmHg 96%
    22:00 +5°C° 0 mm 0 mps 622 mmHg 97%
    23:00 +5°C° 0 mm 0 mps 622 mmHg 97%
    Show more